This demonstration page uses our WeatherBlox Daily Observations layout. Learn more.

Left ArrowRight Arrow

Hourly Observations for May 17, 2016

Temp ( °F °C ) Dew Point ( °F °C ) Humidity (%) Winds ( mph kmh ) Pressure ( in mb ) Visibility ( mi km ) Precip ( " mm )
12:53 am 00:53 Cloudy 55 12.8 41 5 59 59 NNW 5 7 30.20 1023 10 16 N/A
1:53 am 01:53 Cloudy 54 12.2 42 5.6 64 64 NW 5 7 30.20 1023 10 16 N/A
2:53 am 02:53 Cloudy with Light Rain 54 12.2 42 5.6 64 64 N N/A 30.19 1022 10 16 N/A
3:53 am 03:53 Cloudy with Light Rain 51 10.6 49 9.4 92 92 N N/A 30.19 1022 10 16 N/A
4:53 am 04:53 Cloudy 51 10.6 48 8.9 89 89 N N/A 30.19 1023 10 16 0.01 0.25
5:53 am 05:53 Cloudy 51 10.6 49 9.4 92 92 N N/A 30.20 1023 10 16 N/A
6:53 am 06:53 Cloudy 51 10.6 49 9.4 92 92 NW 5 7 30.22 1024 10 16 N/A
7:53 am 07:53 Cloudy with Light Rain 52 11.1 49 9.4 89 89 N N/A 30.24 1024 10 16 N/A
8:53 am 08:53 Cloudy with Light Rain 52 11.1 48 8.9 86 86 N N/A 30.25 1024 8 13 0.02 0.51
9:53 am 09:53 Cloudy 53 11.7 47 8.3 80 80 E 7 11 30.24 1024 10 16 N/A
10:53 am 10:53 Cloudy 53 11.7 45 7.2 74 74 E 8 13 30.24 1024 10 16 N/A
11:53 am 11:53 Cloudy 54 12.2 46 7.8 75 75 VRB 3 6 30.24 1024 10 16 N/A
12:53 pm 12:53 Cloudy with Light Rain 54 12.2 45 7.2 72 72 ESE 5 7 30.24 1024 10 16 N/A
1:53 pm 13:53 Cloudy with Light Rain 55 12.8 47 8.3 74 74 ENE 8 13 30.22 1023 10 16 N/A
2:31 pm 14:31 Cloudy 54 12.2 47 8.3 77 77 E 7 11 30.21 1023 10 16 N/A
2:38 pm 14:38 Cloudy 54 12.2 46 7.8 75 75 E 8 13 30.21 1023 10 16 N/A
2:53 pm 14:53 Cloudy with Light Rain 55 12.8 47 8.3 74 74 E 8 13 30.20 1023 10 16 N/A
3:53 pm 15:53 Cloudy with Light Rain 57 13.9 47 8.3 69 69 E 7 11 30.18 1022 10 16 N/A
4:53 pm 16:53 Cloudy 56 13.3 46 7.8 70 70 E 8 13 30.16 1021 10 16 N/A
5:53 pm 17:53 Cloudy 56 13.3 45 7.2 67 67 E 9 15 30.14 1021 10 16 N/A
6:53 pm 18:53 Cloudy 56 13.3 45 7.2 67 67 N N/A 30.15 1021 10 16 N/A
7:53 pm 19:53 Cloudy with Light Rain 53 11.7 51 10.6 93 93 N N/A 30.15 1021 10 16 0.03 0.76
8:53 pm 20:53 Cloudy with Light Rain 52 11.1 51 10.6 97 97 N N/A 30.15 1021 9 14 0.02 0.51
9:53 pm 21:53 Cloudy with Light Rain 52 11.1 51 10.6 97 97 N N/A 30.16 1022 6 10 0.03 0.76
10:53 pm 22:53 Cloudy with Light Rain 52 11.1 50 10 93 93 N N/A 30.17 1022 6 10 0.06 1.52
11:44 pm 23:44 Cloudy with Light Rain 52 11.1 51 10.6 97 97 N N/A 30.15 1021 7 11 0.02 0.51
11:53 pm 23:53 Cloudy with Light Rain 52 11.1 51 10.6 97 97 N N/A 30.15 1021 7 11 0.02 0.51

Powered by AerisWeather